Location: Donald C. Martin Observatory
(38.3885°N, 82.3916°W)
Time: 11:13:57
(UTC-04:00)

Cosmos 1484 Rocket - Visible Passes

Search period start: 24 May 2015 00:00
Search period end: 03 June 2015 00:00
Orbit: 512 x 567 km, 97.4° (Epoch: 23 May)

Date Brightness Start Highest point End Pass type
(mag) Time Alt. Az. Time Alt. Az. Time Alt. Az.
28 May 5.9 21:44:35 10° WSW 21:46:19 12° W 21:47:50 10° WNW visible
29 May 5.7 21:36:18 10° SW 21:38:44 15° W 21:40:58 10° WNW visible
30 May 5.6 21:28:16 10° SW 21:31:08 18° W 21:33:53 10° NW visible
31 May 5.4 21:20:22 10° SSW 21:23:34 22° W 21:26:41 10° NW visible
01 Jun 5.1 21:12:33 10° SSW 21:16:00 27° W 21:19:24 10° NW visible
